EHI
0 0 0 0 0 0 0 0 0 0 0 0 0 0 0 0 0 0 0 0 0 0 0 0 0 0 0 0 0 0 0 0 0 0 0 0 0 0 0 0 0 0 0
0 0 0 0 0 0 0 0 0 0 0 0 0 0 0 0 0 0 0 0 0 0 0 0 0 0 0 0 0 0 0 0 0 0 0 0 0 0 0 0 0 0 0
0 0 0 0 0 0 0 0 0 0 0 0 0 0 0 0 0 0 0 0 0 0 0 0 0 0 0 0 0 0 0 0 0 0 0 0 0 0 0 0 0 0 0
0 0 0 0 0 0 0 0 0 0 0 0 0 0 0 0 0 0 0 0 0 0 0 0 0 0 0 0 0 0 0 0 0 0 0 0 0 0 0 0 0 0 0
0 0 0 0 0 0 0 0 0 0 0 0 0 0 0 0 0 0 0 0 0 0 0 0 0 0 0 0 0 0 0 0 0 0 0 0 0 0 0 0 0 0 0
0 0 0 0 0 0 0 0 0 0 0 0 0 0 0 0 0 0 0 0 0 0 0 0 0 0 0 0 0 0 0 0 0 0 0 0 0 0 0 0 0 0 0
0 0 0 0 0 0 0 0 0 0 0 0 0 0 0 0 0 0 0 0 0 0 0 0 0 0 0 0 0 0 0 0 0 0 0 0 0 0 0 0 0 0 0
0 0 0 0 0 0 0 0 0 0 0 0 0 0 0 0 0 0 0 0 0 0 0 0 0 0 0 0 0 0 0 0 0 0 0 0 0 0 0 0 0 0 0
0 0 0 0 0 0 0 0 0 0 0 0 0 0 0 0 0 0 0 0 0 0 0 0 0 0 0 0 0 0 0 0 0 0 0 0 0 0 0 0 0 0 0
0 0 0 0 0 0 0 0 0 0 0 0 0 0 0 0 0 0 0 0 0 0 0 0 0 0 0 0 0 0 0 0 0 0 0 0 0 0 0 0 0 0 0
0 0 0 0 0 0 0 0 0 0 0 0 0 0 0 0 0 0 0 0 0 0 0 0 0 0 0 0 0 0 0 0 0 0 0 0 0 0 0 0 0 0 0
0 0 0 0 0 0 0 0 0 0 0 0 0 0 0 0 0 0 0 0 0 0 0 0 0 0 0 0 0 0 0 0 0 0 0 0 0 0 0 0 0 0 0
0 0 0 0 0 0 0 0 0 0 0 0 0 0 0 0 0 0 0 0 0 0 0 0 0 0 0 0 0 0 0 0 0 0 0 0 0 0 0 0 0 0 0
0 0 0 0 0 0 0 0 0 0 0 0 0 0 0 0 0 0 0 0 0 0 0 0 0 0 0 0 0 0 0 0 0 0 0 0 0 0 0 0 0 0 0
0 0 0 0 0 0 0 0 0 0 0 0 0 0 0 0 0 0 0 0 0 0 0 0 0 0 0 0 0 0 0 0 0 0 0 0 0 0 0 0 0 0 0
0 0 0 0 0 0 0 0 0 0 0 0 0 0 0 0 0 0 0 0 0 0 0 0 0 0 0 0 0 0 0 0 0 0 0 0 0 0 0 0 0 0 0
0 0 0 0 0 0 0 0 0 0 0 0 0 0 0 0 0 0 0 0 0 0 0 0 0 0 0 0 0 0 0 0 0 0 0 0 0 0 0 0 0 0 0
0 0 0 0 0 0 0 0 0 0 0 0 0 0 0 0 0 0 0 0 0 0 0 0 0 0 0 0 0 0 0 0 0 0 0 0 0 0 0 0 0 0 0
0 0 0 0 0 0 0 0 0 0 0 0 0 0 0 0 0 0 0 0 0 0 0 0 0 0 0 0 0 0 0 0 0 0 0 0 0 0 0 0 0 0 0
0 0 0 0 0 0 0 0 0 0 0 0 0 0 0 0 0 0 0 0 0 0 0 0 0 0 0 0 0 0 0 0 0 0 0 0 0 0 0 0 0 0 0
0 0 0 0 0 0 0 0 0 0 0 0 0 0 0 0 0 0 0 0 0 0 0 0 0 0 0 0 0 0 0 0 0 0 0 0 0 0 0 0 0 0 0
0 0 0 0 0 0 0 0 0 0 0 0 0 0 0 0 0 0 0 0 0 0 0 0 0 0 0 0 0 0 0 0 0 0 0 0 0 0 0 0 0 0 0
0 0 0 0 0 0 0 0 0 0 0 0 0 0 0 0 0 0 0 0 0 0 0 0 0 0 0 0 0 0 0 0 0 0 0 0 0 0 0 0 0 0 0
0 0 0 0 0 0 0 0 0 0 0 0 0 0 0 0 0 0 0 0 0 0 0 0 0 0 0 0 0 0 0 0 0 0 0 0 0 0 0 0 0 0 0
0 0 0 0 0 0 0 0 0 0 0 0 0 0 0 0 0 0 0 0 0 0 0 0 0 0 0 0 0 0 0 0 0 0 0 0 0 0 0 0 0 0 0
0 0 0 0 0 0 0 0 0 0 0 0 0 0 0 0 0 0 0 0 0 0 0 0 0 0 0 0 0 0 0 0 0 0 0 0 0 0 0 0 0 0 0
Wind_Speed
10 13 18 16 15 14 14 13 12 12 12 13 13 14 14 14 14 15 15 15 15 15 16 16 16 16 17 17 17 16 16 16 16 17 18 18 18 18 18 18 16 11 18
14 15 18 17 16 15 14 13 13 12 12 13 13 13 14 14 14 14 14 15 15 15 15 16 16 16 16 16 15 15 14 14 14 14 16 16 17 17 17 17 16 11 17
15 15 15 17 16 15 14 14 13 13 13 13 13 13 13 13 13 13 13 14 14 14 14 14 15 15 15 15 14 14 13 12 12 13 14 7 10 16 16 15 15 15 15
16 15 13 17 16 15 15 14 14 13 13 13 13 13 12 12 12 12 12 13 13 13 13 13 13 13 14 13 13 13 12 11 12 13 8 7 7 13 14 14 14 14 14
14 13 15 18 16 16 15 15 14 14 14 13 13 12 12 12 12 12 12 12 12 12 12 12 12 12 12 12 12 11 10 10 11 10 6 6 6 11 13 12 12 12 12
13 13 15 18 16 16 16 15 15 14 14 13 12 12 11 11 11 11 11 11 11 11 11 11 11 11 11 11 11 10 9 10 9 6 6 6 5 9 11 11 11 11 11
12 14 15 17 17 16 16 15 15 14 13 13 12 12 11 11 10 10 10 10 10 10 10 10 10 10 10 10 9 9 8 8 4 4 5 5 5 9 9 9 9 9 9
12 14 14 17 17 17 16 15 15 14 13 13 12 12 11 10 10 9 9 9 9 8 8 8 8 8 8 8 8 7 7 8 5 4 4 4 7 8 8 8 8 7 7
12 14 12 11 12 15 15 15 15 14 14 13 12 12 11 10 9 9 8 8 7 7 7 6 6 6 6 6 5 4 6 7 4 1 4 4 6 8 8 8 7 7 7
10 13 12 11 10 9 10 13 14 14 13 13 13 12 11 10 8 8 7 7 6 5 4 4 4 3 3 2 1 3 6 7 3 0 3 3 5 7 8 8 8 8 8
10 11 12 11 11 10 10 12 11 12 12 12 10 12 10 6 6 6 7 7 5 4 3 2 1 1 2 3 4 5 6 3 1 1 3 4 4 7 8 9 9 9 9
10 11 11 11 11 10 9 9 7 7 8 7 6 7 5 4 4 5 8 7 5 4 3 3 3 4 4 2 4 6 3 3 2 0 3 4 2 6 8 9 10 10 10
10 10 11 11 11 10 7 8 5 5 5 6 7 7 4 4 4 4 3 4 4 4 3 4 4 3 2 1 1 2 2 2 2 1 3 3 1 6 9 10 10 10 11
11 11 10 10 10 10 9 7 6 5 5 5 6 7 4 3 3 3 3 3 3 2 2 2 2 3 2 2 2 2 2 2 2 1 2 4 2 5 8 10 11 11 11
11 12 11 11 11 9 8 7 7 6 6 6 5 6 5 4 3 3 2 2 2 2 2 2 2 2 2 2 2 3 3 3 3 2 1 5 4 4 7 9 10 10 11
12 12 11 11 11 10 8 7 6 6 6 6 5 6 6 4 3 3 2 2 2 1 1 1 2 1 1 1 3 4 4 3 3 3 2 2 4 4 5 7 8 9 9
12 12 13 12 12 11 10 8 6 6 6 6 5 6 6 5 4 3 2 2 2 1 1 1 2 1 2 2 3 4 3 3 3 4 3 1 1 2 2 3 6 7 8
11 12 13 11 12 12 10 8 6 6 6 5 5 5 7 6 5 4 3 2 2 2 1 1 1 1 2 2 2 3 3 3 4 3 2 2 1 1 1 1 3 6 7
11 12 13 12 12 12 11 8 7 6 6 5 5 5 6 6 6 4 3 2 3 2 1 1 1 1 1 2 3 3 3 3 3 3 2 1 1 1 1 2 3 5 6
10 11 12 12 11 11 9 7 6 6 5 5 5 5 6 5 6 4 3 3 3 2 1 1 1 1 1 1 3 4 4 4 3 1 1 1 0 0 0 1 2 3 6
9 10 12 12 11 10 9 8 7 6 6 5 5 7 7 6 6 5 3 3 3 2 2 2 1 0 1 1 2 4 4 4 1 1 0 1 1 1 1 2 2 1 2
9 10 11 12 12 11 9 8 6 6 5 5 5 6 7 7 7 5 5 4 4 2 2 1 1 1 1 1 1 2 4 5 3 1 1 1 1 1 2 2 2 2 2
9 10 9 11 11 11 10 7 6 5 4 4 5 5 6 7 6 6 5 4 4 3 3 2 2 2 0 1 1 1 0 2 4 4 3 1 2 2 2 3 3 3 3
8 8 8 10 10 10 10 10 10 8 6 6 6 5 5 6 6 6 5 5 4 3 3 3 2 2 2 1 1 1 2 2 1 4 4 3 3 3 4 3 3 3 3
8 7 7 9 9 9 10 11 10 8 6 5 6 7 6 5 6 6 6 5 5 4 4 3 2 2 2 2 1 1 1 1 2 2 5 4 4 3 3 4 3 3 3
7 7 7 8 9 9 10 10 10 10 9 9 8 8 6 5 5 6 6 5 5 4 4 4 3 3 2 2 1 1 2 2 2 2 4 5 5 4 4 4 4 4 3
Wind_Direction
131 140 150 146 143 138 133 126 119 112 105 98 94 90 86 82 78 74 74 72 70 68 69 68 68 67 65 64 63 62 61 61 61 63 61 59 59 58 55 53 53 47 51
135 141 150 148 144 141 133 126 122 118 110 101 95 92 87 84 80 77 75 73 70 68 69 69 68 68 66 65 65 63 62 61 59 61 65 59 58 58 57 54 53 52 52
134 140 151 149 146 141 134 130 128 121 114 107 100 95 92 88 84 80 77 76 73 71 70 70 69 68 67 66 66 63 61 58 54 57 62 55 51 55 55 54 53 51 51
136 142 150 149 147 143 137 133 131 125 118 113 106 100 96 92 88 84 81 79 77 75 72 71 71 70 69 67 64 62 59 53 47 55 54 49 44 54 54 52 52 51 50
137 144 145 150 149 145 140 137 133 129 122 117 111 105 100 96 93 90 86 83 81 79 76 73 71 71 69 67 63 58 50 38 42 53 48 49 37 50 52 50 48 47 47
138 137 144 151 151 147 143 139 135 132 127 122 118 114 108 103 99 95 92 89 85 83 80 76 73 71 68 65 61 53 39 28 49 50 50 45 26 41 48 46 44 43 42
140 135 147 153 153 150 147 144 141 137 134 130 126 122 116 110 106 102 98 94 90 86 83 79 75 71 68 64 58 48 27 9 57 66 64 52 23 33 39 38 36 35 36
138 136 147 155 154 153 151 150 147 143 140 137 133 129 123 119 115 110 105 99 93 88 84 80 75 70 65 60 53 36 11 357 18 60 86 69 26 19 23 24 23 20 21
138 139 147 154 155 155 154 154 151 148 145 144 140 135 131 128 124 118 113 107 100 93 86 79 75 69 63 56 45 16 344 333 332 349 87 76 24 8 6 7 4 0 359
141 145 152 157 157 156 154 154 153 151 150 148 143 139 137 137 134 132 125 119 113 105 95 81 73 69 60 54 17 315 308 309 286 128 89 76 24 357 352 352 350 345 343
153 153 158 162 162 159 158 158 155 155 153 149 146 147 149 156 153 151 136 141 140 136 128 117 104 253 257 247 239 262 287 276 277 115 111 88 19 347 341 340 338 335 333
169 164 162 167 164 163 163 156 161 161 158 160 156 162 177 168 151 146 145 162 173 182 194 211 238 263 258 228 230 248 265 285 314 188 130 118 14 337 330 328 327 326 326
173 170 168 169 164 163 158 160 164 162 164 171 165 171 172 151 141 138 152 172 192 205 214 215 237 242 255 235 237 252 275 325 305 325 140 149 325 324 321 320 320 320 320
174 176 171 167 163 164 161 164 163 162 167 169 172 172 165 154 161 157 169 174 186 194 198 212 236 241 253 259 261 291 304 285 281 279 179 188 246 307 315 316 317 318 319
178 176 175 170 166 166 161 164 168 168 167 166 168 170 164 161 171 162 177 171 188 187 189 230 254 265 282 294 296 296 292 290 290 291 202 210 233 281 307 315 318 320 321
180 176 175 175 169 165 167 167 170 169 164 163 165 175 173 168 164 164 173 175 192 189 208 235 270 290 297 311 312 302 297 305 312 317 295 230 229 256 299 318 326 328 329
179 175 176 178 172 170 172 173 171 169 164 165 170 177 175 170 165 167 173 176 190 187 221 264 304 331 319 308 299 300 307 312 308 303 308 302 232 202 251 321 334 336 335
175 175 176 179 176 173 174 174 172 170 165 168 168 171 176 170 166 168 176 187 180 164 182 227 289 316 306 309 310 310 311 301 297 299 307 311 26 98 145 285 318 326 331
176 174 174 176 178 174 174 174 172 170 168 168 166 171 173 168 168 169 179 177 164 157 183 217 239 254 300 306 299 295 291 285 283 297 314 341 71 105 147 219 253 292 310
174 172 172 173 177 173 171 170 168 172 171 167 168 172 169 170 170 170 170 170 154 154 191 220 240 238 257 297 316 305 285 268 254 252 307 330 168 194 209 239 240 269 289
173 173 173 173 177 174 173 174 175 179 173 169 167 168 169 171 170 169 163 161 157 172 190 198 171 338 310 6 353 317 300 278 230 168 261 355 338 304 268 270 263 274 294
178 178 175 174 177 178 175 172 171 167 165 162 158 166 169 170 170 168 165 167 166 168 182 172 129 108 316 61 74 345 336 338 353 349 337 289 301 322 306 300 312 310 294
181 181 181 176 175 176 166 158 151 141 138 149 161 167 173 168 164 160 167 164 162 163 168 159 145 144 189 319 114 128 43 299 320 313 303 302 314 319 308 307 296 298 296
177 172 175 170 170 172 165 164 165 167 170 173 165 166 170 166 162 161 164 158 156 154 155 160 150 153 149 214 293 174 195 198 267 310 314 319 333 317 298 293 297 297 293
160 160 166 163 169 170 168 169 172 173 170 157 157 162 167 165 161 160 161 158 158 157 156 149 149 164 162 176 185 205 273 283 217 230 284 301 309 291 293 292 284 278 276
145 149 159 164 170 172 172 175 180 177 168 162 164 167 168 163 162 164 164 161 160 156 156 157 162 169 176 184 190 190 194 214 236 236 263 289 293 287 292 279 272 265 258